contact:dominique.lefevre@mio.osupytheas.fr, maurice.libes@osupytheas.fr, didier.mallarino@osupytheas.fr
Project:EMSO http://www.emso-fr.org/EMSO-France
Depth: 2436.0 m
Title:EMSO Ligure Ouest : Data MII capteur CSTAR
DateTime,Latitude,Longitude,Instrument_Serial,Reference_Counts,Signal_Counts,Corrected_Signal_raw_counts,Calculated_Beam_c_inverse_meters,Internal_thermistor_counts
DateTime,Latitude,Longitude,Instrument_Serial,Reference_Counts,Signal_Counts,Corrected_Signal_raw_counts,Calculated_Beam_c_inverse_meters,Internal_thermistor_counts
2023-04-02T00:00:32,42.805,6.029,CST-1368DR,4335,4691,11492,01.227,551
2023-04-02T00:03:34,42.805,6.029,CST-1368DR,4335,4685,11477,01.232,551
2023-04-02T00:06:36,42.805,6.029,CST-1368DR,4335,4687,11483,01.230,551
2023-04-02T00:09:37,42.805,6.029,CST-1368DR,4335,4691,11492,01.227,551
2023-04-02T00:12:39,42.805,6.029,CST-1368DR,4335,4687,11482,01.230,551
2023-04-02T00:15:40,42.805,6.029,CST-1368DR,4335,4687,11481,01.230,551
2023-04-02T00:18:42,42.805,6.029,CST-1368DR,4335,4688,11485,01.229,551
2023-04-02T00:21:43,42.805,6.029,CST-1368DR,4335,4684,11476,01.232,551
2023-04-02T00:24:45,42.805,6.029,CST-1368DR,4335,4688,11485,01.229,551
2023-04-02T00:27:47,42.805,6.029,CST-1368DR,4335,4687,11482,01.230,551
2023-04-02T00:30:48,42.805,6.029,CST-1368DR,4335,4688,11484,01.229,551
2023-04-02T00:33:50,42.805,6.029,CST-1368DR,4335,4689,11488,01.228,551
2023-04-02T00:36:51,42.805,6.029,CST-1368DR,4335,4685,11478,01.231,551
2023-04-02T00:39:53,42.805,6.029,CST-1368DR,4335,4684,11476,01.232,551
2023-04-02T00:42:55,42.805,6.029,CST-1368DR,4335,4682,11470,01.234,551
2023-04-02T00:45:56,42.805,6.029,CST-1368DR,4335,4685,11478,01.231,551
2023-04-02T00:48:58,42.805,6.029,CST-1368DR,4335,4685,11478,01.231,551
2023-04-02T00:51:59,42.805,6.029,CST-1368DR,4335,4684,11476,01.232,551
2023-04-02T00:55:01,42.805,6.029,CST-1368DR,4335,4684,11475,01.233,551
2023-04-02T00:58:02,42.805,6.029,CST-1368DR,4335,4675,11453,01.240,551
2023-04-02T01:01:04,42.805,6.029,CST-1368DR,4335,4683,11472,01.234,551
2023-04-02T01:04:06,42.805,6.029,CST-1368DR,4335,4679,11462,01.237,551
2023-04-02T01:07:07,42.805,6.029,CST-1368DR,4335,4682,11471,01.234,551
2023-04-02T01:10:09,42.805,6.029,CST-1368DR,4335,4679,11464,01.236,551
2023-04-02T01:13:10,42.805,6.029,CST-1368DR,4335,4679,11463,01.237,551
2023-04-02T01:16:12,42.805,6.029,CST-1368DR,4335,4683,11474,01.233,551
2023-04-02T01:19:13,42.805,6.029,CST-1368DR,4335,4684,11475,01.233,551
2023-04-02T01:22:15,42.805,6.029,CST-1368DR,4335,4680,11466,01.236,551
2023-04-02T01:25:17,42.805,6.029,CST-1368DR,4335,4681,11468,01.235,551
2023-04-02T01:28:18,42.805,6.029,CST-1368DR,4335,4681,11467,01.235,551
2023-04-02T01:31:20,42.805,6.029,CST-1368DR,4335,4684,11475,01.233,551
2023-04-02T01:34:21,42.805,6.029,CST-1368DR,4335,4680,11466,01.236,551
2023-04-02T01:37:23,42.805,6.029,CST-1368DR,4335,4688,11485,01.229,551
2023-04-02T01:40:25,42.805,6.029,CST-1368DR,4335,4678,11460,01.238,551
2023-04-02T01:43:26,42.805,6.029,CST-1368DR,4335,4683,11474,01.233,551
2023-04-02T01:46:28,42.805,6.029,CST-1368DR,4335,4680,11464,01.236,551
2023-04-02T01:49:29,42.805,6.029,CST-1368DR,4335,4677,11457,01.239,551
2023-04-02T01:52:31,42.805,6.029,CST-1368DR,4335,4677,11457,01.239,551
2023-04-02T01:55:32,42.805,6.029,CST-1368DR,4335,4682,11469,01.235,551
2023-04-02T01:58:34,42.805,6.029,CST-1368DR,4335,4680,11466,01.236,551
2023-04-02T02:01:36,42.805,6.029,CST-1368DR,4335,4680,11464,01.236,551
2023-04-02T02:04:37,42.805,6.029,CST-1368DR,4335,4681,11467,01.235,551
2023-04-02T02:07:39,42.805,6.029,CST-1368DR,4335,4683,11474,01.233,551
2023-04-02T02:10:40,42.805,6.029,CST-1368DR,4335,4684,11474,01.233,551
2023-04-02T02:13:42,42.805,6.029,CST-1368DR,4335,4674,11451,01.241,551
2023-04-02T02:16:43,42.805,6.029,CST-1368DR,4335,4681,11469,01.235,551
2023-04-02T02:19:45,42.805,6.029,CST-1368DR,4335,4683,11474,01.233,551
2023-04-02T02:22:47,42.805,6.029,CST-1368DR,4335,4686,11481,01.230,551
2023-04-02T02:25:48,42.805,6.029,CST-1368DR,4335,4679,11462,01.237,551
2023-04-02T02:28:50,42.805,6.029,CST-1368DR,4335,4683,11473,01.233,551
2023-04-02T02:31:51,42.805,6.029,CST-1368DR,4335,4682,11470,01.234,551
2023-04-02T02:34:53,42.805,6.029,CST-1368DR,4335,4683,11474,01.233,551
2023-04-02T02:37:54,42.805,6.029,CST-1368DR,4335,4683,11474,01.233,551
2023-04-02T02:40:56,42.805,6.029,CST-1368DR,4335,4683,11472,01.234,551
2023-04-02T02:43:58,42.805,6.029,CST-1368DR,4335,4683,11473,01.233,551
2023-04-02T02:46:59,42.805,6.029,CST-1368DR,4335,4678,11461,01.237,551
2023-04-02T02:50:01,42.805,6.029,CST-1368DR,4335,4680,11466,01.236,551
2023-04-02T02:53:02,42.805,6.029,CST-1368DR,4335,4678,11461,01.237,551
2023-04-02T02:56:04,42.805,6.029,CST-1368DR,4335,4682,11469,01.235,551
2023-04-02T02:59:06,42.805,6.029,CST-1368DR,4335,4682,11470,01.234,551
2023-04-02T03:02:07,42.805,6.029,CST-1368DR,4335,4679,11464,01.236,551
2023-04-02T03:05:09,42.805,6.029,CST-1368DR,4335,4680,11465,01.236,551
2023-04-02T03:08:10,42.805,6.029,CST-1368DR,4335,4685,11477,01.232,551
2023-04-02T03:11:12,42.805,6.029,CST-1368DR,4335,4681,11469,01.235,551
2023-04-02T03:14:13,42.805,6.029,CST-1368DR,4335,4678,11461,01.237,551
2023-04-02T03:17:15,42.805,6.029,CST-1368DR,4335,4680,11464,01.236,551
2023-04-02T03:20:17,42.805,6.029,CST-1368DR,4335,4678,11461,01.237,552
2023-04-02T03:23:18,42.805,6.029,CST-1368DR,4335,4679,11462,01.237,551
2023-04-02T03:26:20,42.805,6.029,CST-1368DR,4335,4677,11457,01.239,552
2023-04-02T03:29:21,42.805,6.029,CST-1368DR,4335,4669,11439,01.245,551
2023-04-02T03:32:23,42.805,6.029,CST-1368DR,4335,4676,11455,01.239,551
2023-04-02T03:35:24,42.805,6.029,CST-1368DR,4335,4676,11456,01.239,551
2023-04-02T03:38:26,42.805,6.029,CST-1368DR,4335,4687,11481,01.230,551
2023-04-02T03:41:28,42.805,6.029,CST-1368DR,4335,4684,11476,01.232,551
2023-04-02T03:44:29,42.805,6.029,CST-1368DR,4335,4686,11481,01.230,551
2023-04-02T03:47:31,42.805,6.029,CST-1368DR,4335,4683,11474,01.233,551
2023-04-02T03:50:32,42.805,6.029,CST-1368DR,4335,4686,11481,01.230,551
2023-04-02T03:53:34,42.805,6.029,CST-1368DR,4335,4679,11464,01.236,551
2023-04-02T03:56:36,42.805,6.029,CST-1368DR,4335,4668,11436,01.246,551
2023-04-02T03:59:37,42.805,6.029,CST-1368DR,4335,4684,11476,01.232,551
2023-04-02T04:02:39,42.805,6.029,CST-1368DR,4335,4681,11467,01.235,551
2023-04-02T04:05:40,42.805,6.029,CST-1368DR,4335,4681,11469,01.235,551
2023-04-02T04:08:42,42.805,6.029,CST-1368DR,4335,4685,11477,01.232,551
2023-04-02T04:11:43,42.805,6.029,CST-1368DR,4335,4678,11459,01.238,551
2023-04-02T04:14:45,42.805,6.029,CST-1368DR,4335,4677,11459,01.238,551
2023-04-02T04:17:47,42.805,6.029,CST-1368DR,4335,4679,11464,01.236,551
2023-04-02T04:20:48,42.805,6.029,CST-1368DR,4335,4681,11468,01.235,551
2023-04-02T04:23:50,42.805,6.029,CST-1368DR,4335,4676,11456,01.239,551
2023-04-02T04:26:51,42.805,6.029,CST-1368DR,4335,4682,11470,01.234,551
2023-04-02T04:29:53,42.805,6.029,CST-1368DR,4335,4672,11447,01.242,551
2023-04-02T04:32:57,42.805,6.029,CST-1368DR,4335,4673,11448,01.242,551
2023-04-02T04:35:59,42.805,6.029,CST-1368DR,4335,4670,11440,01.245,551
2023-04-02T04:39:00,42.805,6.029,CST-1368DR,4335,4728,11582,01.195,551
2023-04-02T04:42:02,42.805,6.029,CST-1368DR,4335,4721,11567,01.201,551
2023-04-02T04:45:03,42.805,6.029,CST-1368DR,4335,4719,11560,01.203,551
2023-04-02T04:48:05,42.805,6.029,CST-1368DR,4335,4713,11547,01.207,551
2023-04-02T04:51:07,42.805,6.029,CST-1368DR,4335,4713,11547,01.207,551
2023-04-02T04:54:08,42.805,6.029,CST-1368DR,4335,4725,11575,01.198,551
2023-04-02T04:57:10,42.805,6.029,CST-1368DR,4335,4710,11538,01.211,551
2023-04-02T05:00:11,42.805,6.029,CST-1368DR,4335,4721,11565,01.201,551
2023-04-02T05:03:13,42.805,6.029,CST-1368DR,4335,4719,11560,01.203,551
2023-04-02T05:06:14,42.805,6.029,CST-1368DR,4335,4712,11543,01.209,551
2023-04-02T05:09:16,42.805,6.029,CST-1368DR,4335,4716,11553,01.205,551
2023-04-02T05:12:18,42.805,6.029,CST-1368DR,4335,4720,11562,01.202,551
2023-04-02T05:15:19,42.805,6.029,CST-1368DR,4335,4718,11559,01.203,551
2023-04-02T05:18:21,42.805,6.029,CST-1368DR,4335,4716,11553,01.205,551
2023-04-02T05:21:22,42.805,6.029,CST-1368DR,4335,4718,11559,01.203,551
2023-04-02T05:24:24,42.805,6.029,CST-1368DR,4335,4714,11548,01.207,551
2023-04-02T05:27:25,42.805,6.029,CST-1368DR,4335,4723,11571,01.199,551
2023-04-02T05:30:27,42.805,6.029,CST-1368DR,4335,4713,11547,01.207,551
2023-04-02T05:33:29,42.805,6.029,CST-1368DR,4335,4710,11540,01.210,551
2023-04-02T05:36:30,42.805,6.029,CST-1368DR,4335,4716,11554,01.205,551
2023-04-02T05:39:32,42.805,6.029,CST-1368DR,4335,4711,11541,01.210,551
2023-04-02T05:42:33,42.805,6.029,CST-1368DR,4335,4717,11556,01.204,551
2023-04-02T05:45:35,42.805,6.029,CST-1368DR,4335,4720,11564,01.202,551
2023-04-02T05:48:37,42.805,6.029,CST-1368DR,4335,4719,11560,01.203,551
2023-04-02T05:51:38,42.805,6.029,CST-1368DR,4335,4719,11560,01.203,551
2023-04-02T05:54:40,42.805,6.029,CST-1368DR,4335,4715,11550,01.206,551
2023-04-02T05:57:41,42.805,6.029,CST-1368DR,4335,4718,11559,01.203,551
2023-04-02T06:00:43,42.805,6.029,CST-1368DR,4335,4715,11552,01.206,551
2023-04-02T06:03:44,42.805,6.029,CST-1368DR,4335,4717,11555,01.205,551
2023-04-02T06:06:46,42.805,6.029,CST-1368DR,4335,4715,11551,01.206,551
2023-04-02T06:09:48,42.805,6.029,CST-1368DR,4335,4717,11556,01.204,551
2023-04-02T06:12:49,42.805,6.029,CST-1368DR,4335,4714,11549,01.207,551
2023-04-02T06:15:51,42.805,6.029,CST-1368DR,4335,4716,11553,01.205,551
2023-04-02T06:18:52,42.805,6.029,CST-1368DR,4335,4723,11570,01.200,551
2023-04-02T06:21:54,42.805,6.029,CST-1368DR,4335,4716,11554,01.205,551
2023-04-02T06:24:55,42.805,6.029,CST-1368DR,4335,4722,11567,01.201,551
2023-04-02T06:27:57,42.805,6.029,CST-1368DR,4335,4721,11565,01.201,551
2023-04-02T06:30:59,42.805,6.029,CST-1368DR,4335,4716,11554,01.205,551
2023-04-02T06:34:00,42.805,6.029,CST-1368DR,4335,4721,11565,01.201,551
2023-04-02T06:37:02,42.805,6.029,CST-1368DR,4335,4717,11556,01.204,551
2023-04-02T06:40:03,42.805,6.029,CST-1368DR,4335,4719,11561,01.203,551
2023-04-02T06:43:05,42.805,6.029,CST-1368DR,4335,4716,11553,01.205,551
2023-04-02T06:46:07,42.805,6.029,CST-1368DR,4335,4719,11561,01.203,551
2023-04-02T06:49:08,42.805,6.029,CST-1368DR,4335,4711,11540,01.210,551
2023-04-02T06:52:10,42.805,6.029,CST-1368DR,4335,4719,11560,01.203,551
2023-04-02T06:55:11,42.805,6.029,CST-1368DR,4335,4696,11505,01.222,552
2023-04-02T06:58:13,42.805,6.029,CST-1368DR,4335,4703,11521,01.216,551
2023-04-02T07:01:14,42.805,6.029,CST-1368DR,4335,4711,11540,01.210,551
2023-04-02T07:04:16,42.805,6.029,CST-1368DR,4335,4675,11452,01.241,551
2023-04-02T07:07:18,42.805,6.029,CST-1368DR,4335,4697,11506,01.222,551
2023-04-02T07:10:19,42.805,6.029,CST-1368DR,4335,4687,11481,01.230,551
2023-04-02T07:13:21,42.805,6.029,CST-1368DR,4335,4689,11488,01.228,551
2023-04-02T07:16:22,42.805,6.029,CST-1368DR,4335,4690,11491,01.227,551
2023-04-02T07:19:24,42.805,6.029,CST-1368DR,4335,4693,11498,01.224,551
2023-04-02T07:22:25,42.805,6.029,CST-1368DR,4335,4685,11477,01.232,551
2023-04-02T07:25:27,42.805,6.029,CST-1368DR,4334,4673,11452,01.241,551
2023-04-02T07:28:29,42.805,6.029,CST-1368DR,4335,4701,11518,01.218,551
2023-04-02T07:31:30,42.805,6.029,CST-1368DR,4335,4690,11489,01.228,551
2023-04-02T07:34:32,42.805,6.029,CST-1368DR,4335,4705,11527,01.214,551
2023-04-02T07:37:33,42.805,6.029,CST-1368DR,4335,4680,11464,01.236,551
2023-04-02T07:40:35,42.805,6.029,CST-1368DR,4334,4675,11456,01.239,551
2023-04-02T07:43:36,42.805,6.029,CST-1368DR,4335,4694,11499,01.224,551
2023-04-02T07:46:38,42.805,6.029,CST-1368DR,4334,4662,11423,01.251,551
2023-04-02T07:49:40,42.805,6.029,CST-1368DR,4334,4656,11408,01.256,551
2023-04-02T07:52:41,42.805,6.029,CST-1368DR,4334,4649,11392,01.262,551
2023-04-02T07:55:43,42.805,6.029,CST-1368DR,4334,4651,11396,01.260,551
2023-04-02T07:58:44,42.805,6.029,CST-1368DR,4334,4652,11399,01.259,551
2023-04-02T08:01:46,42.805,6.029,CST-1368DR,4334,4635,11358,01.273,551
2023-04-02T08:04:48,42.805,6.029,CST-1368DR,4334,4648,11389,01.263,551
2023-04-02T08:07:49,42.805,6.029,CST-1368DR,4334,4628,11341,01.279,551
2023-04-02T08:10:51,42.805,6.029,CST-1368DR,4334,4607,11290,01.298,551
2023-04-02T08:13:52,42.805,6.029,CST-1368DR,4334,4631,11348,01.277,551
2023-04-02T08:16:54,42.805,6.029,CST-1368DR,4334,4641,11373,01.268,551
2023-04-02T08:19:55,42.805,6.029,CST-1368DR,4334,4631,11348,01.277,551
2023-04-02T08:22:57,42.805,6.029,CST-1368DR,4334,4635,11358,01.273,551
2023-04-02T08:25:59,42.805,6.029,CST-1368DR,4334,4630,11344,01.278,551
2023-04-02T08:29:00,42.805,6.029,CST-1368DR,4334,4596,11263,01.307,551
2023-04-02T08:32:02,42.805,6.029,CST-1368DR,4334,4630,11344,01.278,551
2023-04-02T08:35:03,42.805,6.029,CST-1368DR,4334,4625,11333,01.282,551
2023-04-02T08:38:05,42.805,6.029,CST-1368DR,4334,4613,11305,01.292,551
2023-04-02T08:41:06,42.805,6.029,CST-1368DR,4334,4629,11343,01.279,551
2023-04-02T08:44:08,42.805,6.029,CST-1368DR,4334,4628,11340,01.280,551
2023-04-02T08:47:10,42.805,6.029,CST-1368DR,4334,4575,11211,01.326,551
2023-04-02T08:50:11,42.805,6.029,CST-1368DR,4334,4619,11317,01.288,552
2023-04-02T08:53:13,42.805,6.029,CST-1368DR,4334,4602,11277,01.302,551
2023-04-02T08:56:14,42.805,6.029,CST-1368DR,4334,4614,11306,01.292,551
2023-04-02T08:59:16,42.805,6.029,CST-1368DR,4334,4589,11245,01.313,551
2023-04-02T09:02:17,42.805,6.029,CST-1368DR,4334,4650,11395,01.260,551
2023-04-02T09:05:19,42.805,6.029,CST-1368DR,4335,4681,11468,01.235,551
2023-04-02T09:08:21,42.805,6.029,CST-1368DR,4334,4679,11466,01.236,551
2023-04-02T09:11:22,42.805,6.029,CST-1368DR,4334,4667,11436,01.246,551
2023-04-02T09:14:24,42.805,6.029,CST-1368DR,4334,4680,11469,01.235,551
2023-04-02T09:17:25,42.805,6.029,CST-1368DR,4334,4674,11453,01.240,551
2023-04-02T09:20:27,42.805,6.029,CST-1368DR,4334,4681,11470,01.234,551
2023-04-02T09:23:29,42.805,6.029,CST-1368DR,4334,4675,11455,01.239,551
2023-04-02T09:26:30,42.805,6.029,CST-1368DR,4334,4679,11466,01.236,551
2023-04-02T09:29:32,42.805,6.029,CST-1368DR,4334,4686,11483,01.230,551
2023-04-02T09:32:33,42.805,6.029,CST-1368DR,4334,4651,11396,01.260,551
2023-04-02T09:35:35,42.805,6.029,CST-1368DR,4334,4677,11461,01.237,551
2023-04-02T09:38:36,42.805,6.029,CST-1368DR,4334,4681,11471,01.234,552
2023-04-02T09:41:38,42.805,6.029,CST-1368DR,4334,4671,11445,01.243,551
2023-04-02T09:44:40,42.805,6.029,CST-1368DR,4334,4677,11460,01.238,551
2023-04-02T09:47:41,42.805,6.029,CST-1368DR,4334,4678,11462,01.237,551
2023-04-02T09:50:43,42.805,6.029,CST-1368DR,4334,4676,11458,01.238,551
2023-04-02T09:53:44,42.805,6.029,CST-1368DR,4334,4660,11418,01.252,551
2023-04-02T09:56:46,42.805,6.029,CST-1368DR,4334,4683,11475,01.233,551
2023-04-02T09:59:48,42.805,6.029,CST-1368DR,4334,4678,11463,01.237,551
2023-04-02T10:02:49,42.805,6.029,CST-1368DR,4334,4679,11466,01.236,551
2023-04-02T10:05:51,42.805,6.029,CST-1368DR,4334,4680,11467,01.235,551
2023-04-02T10:08:52,42.805,6.029,CST-1368DR,4334,4680,11469,01.235,551
2023-04-02T10:11:54,42.805,6.029,CST-1368DR,4334,4684,11477,01.232,552
2023-04-02T10:14:55,42.805,6.029,CST-1368DR,4334,4681,11471,01.234,551
2023-04-02T10:17:57,42.805,6.029,CST-1368DR,4334,4684,11478,01.231,551
2023-04-02T10:20:59,42.805,6.029,CST-1368DR,4334,4678,11464,01.236,551
2023-04-02T10:24:00,42.805,6.029,CST-1368DR,4334,4685,11480,01.231,551
2023-04-02T10:27:02,42.805,6.029,CST-1368DR,4334,4682,11472,01.234,551
2023-04-02T10:30:07,42.805,6.029,CST-1368DR,4334,4678,11463,01.237,551
2023-04-02T10:33:05,42.805,6.029,CST-1368DR,4334,4689,11489,01.228,551
2023-04-02T10:36:06,42.805,6.029,CST-1368DR,4334,4681,11471,01.234,551
2023-04-02T10:39:08,42.805,6.029,CST-1368DR,4334,4682,11474,01.233,551
2023-04-02T10:42:10,42.805,6.029,CST-1368DR,4334,4681,11471,01.234,551
2023-04-02T10:45:11,42.805,6.029,CST-1368DR,4334,4683,11476,01.232,551
2023-04-02T10:48:13,42.805,6.029,CST-1368DR,4334,4686,11482,01.230,551
2023-04-02T10:51:14,42.805,6.029,CST-1368DR,4334,4678,11464,01.236,551
2023-04-02T10:54:16,42.805,6.029,CST-1368DR,4334,4685,11479,01.231,551
2023-04-02T10:57:17,42.805,6.029,CST-1368DR,4334,4680,11467,01.235,551
2023-04-02T11:00:19,42.805,6.029,CST-1368DR,4334,4678,11462,01.237,551
2023-04-02T11:03:21,42.805,6.029,CST-1368DR,4334,4691,11495,01.226,551
2023-04-02T11:06:22,42.805,6.029,CST-1368DR,4334,4685,11480,01.231,551
2023-04-02T11:09:24,42.805,6.029,CST-1368DR,4334,4690,11491,01.227,551
2023-04-02T11:12:25,42.805,6.029,CST-1368DR,4334,4683,11475,01.233,551
2023-04-02T11:15:27,42.805,6.029,CST-1368DR,4334,4677,11460,01.238,551
2023-04-02T11:18:29,42.805,6.029,CST-1368DR,4334,4683,11475,01.233,551
2023-04-02T11:21:30,42.805,6.029,CST-1368DR,4334,4685,11480,01.231,551
2023-04-02T11:24:32,42.805,6.029,CST-1368DR,4334,4682,11474,01.233,551
2023-04-02T11:27:33,42.805,6.029,CST-1368DR,4334,4679,11466,01.236,551
2023-04-02T11:30:35,42.805,6.029,CST-1368DR,4334,4673,11450,01.241,551
2023-04-02T11:33:36,42.805,6.029,CST-1368DR,4334,4677,11460,01.238,551
2023-04-02T11:36:38,42.805,6.029,CST-1368DR,4334,4681,11471,01.234,551
2023-04-02T11:39:40,42.805,6.029,CST-1368DR,4334,4680,11468,01.235,551
2023-04-02T11:42:41,42.805,6.029,CST-1368DR,4334,4678,11464,01.236,551
2023-04-02T11:45:43,42.805,6.029,CST-1368DR,4334,4679,11466,01.236,551
2023-04-02T11:48:44,42.805,6.029,CST-1368DR,4334,4678,11463,01.237,551
2023-04-02T11:51:46,42.805,6.029,CST-1368DR,4334,4679,11466,01.236,551
2023-04-02T11:54:47,42.805,6.029,CST-1368DR,4334,4676,11458,01.238,551
2023-04-02T11:57:49,42.805,6.029,CST-1368DR,4334,4679,11464,01.236,551
2023-04-02T12:00:51,42.805,6.029,CST-1368DR,4334,4684,11478,01.231,551
2023-04-02T12:03:52,42.805,6.029,CST-1368DR,4334,4682,11473,01.233,551
2023-04-02T12:06:54,42.805,6.029,CST-1368DR,4334,4683,11474,01.233,551
2023-04-02T12:09:55,42.805,6.029,CST-1368DR,4334,4680,11469,01.235,552
2023-04-02T12:12:57,42.805,6.029,CST-1368DR,4334,4680,11468,01.235,551
2023-04-02T12:15:59,42.805,6.029,CST-1368DR,4334,4681,11471,01.234,551
2023-04-02T12:19:00,42.805,6.029,CST-1368DR,4334,4688,11487,01.228,551
2023-04-02T12:22:02,42.805,6.029,CST-1368DR,4334,4688,11488,01.228,551
2023-04-02T12:25:03,42.805,6.029,CST-1368DR,4334,4684,11478,01.231,551
2023-04-02T12:28:05,42.805,6.029,CST-1368DR,4334,4689,11490,01.227,551
2023-04-02T12:31:07,42.805,6.029,CST-1368DR,4334,4684,11478,01.231,551
2023-04-02T12:34:09,42.805,6.029,CST-1368DR,4334,4687,11485,01.229,551
2023-04-02T12:37:11,42.805,6.029,CST-1368DR,4334,4685,11480,01.231,552
2023-04-02T12:40:12,42.805,6.029,CST-1368DR,4334,4683,11476,01.232,551
2023-04-02T12:43:14,42.805,6.029,CST-1368DR,4334,4685,11480,01.231,551
2023-04-02T12:46:15,42.805,6.029,CST-1368DR,4334,4686,11482,01.230,551
2023-04-02T12:49:17,42.805,6.029,CST-1368DR,4334,4682,11473,01.233,551
2023-04-02T12:52:19,42.805,6.029,CST-1368DR,4334,4676,11458,01.238,551
2023-04-02T12:55:20,42.805,6.029,CST-1368DR,4334,4682,11472,01.234,551
2023-04-02T12:58:22,42.805,6.029,CST-1368DR,4334,4685,11480,01.231,551
2023-04-02T13:01:23,42.805,6.029,CST-1368DR,4334,4684,11477,01.232,551
2023-04-02T13:04:25,42.805,6.029,CST-1368DR,4334,4682,11472,01.234,552
2023-04-02T13:07:26,42.805,6.029,CST-1368DR,4334,4683,11474,01.233,551
2023-04-02T13:10:28,42.805,6.029,CST-1368DR,4334,4682,11473,01.233,551
2023-04-02T13:13:30,42.805,6.029,CST-1368DR,4334,4681,11471,01.234,551
2023-04-02T13:16:31,42.805,6.029,CST-1368DR,4334,4681,11471,01.234,552
2023-04-02T13:19:33,42.805,6.029,CST-1368DR,4334,4685,11480,01.231,552
2023-04-02T13:22:34,42.805,6.029,CST-1368DR,4334,4685,11481,01.230,551
2023-04-02T13:25:36,42.805,6.029,CST-1368DR,4334,4683,11476,01.232,551
2023-04-02T13:28:37,42.805,6.029,CST-1368DR,4334,4682,11472,01.234,551
2023-04-02T13:31:39,42.805,6.029,CST-1368DR,4334,4682,11472,01.234,551
2023-04-02T13:34:41,42.805,6.029,CST-1368DR,4334,4680,11469,01.235,551
2023-04-02T13:37:42,42.805,6.029,CST-1368DR,4334,4683,11476,01.232,551
2023-04-02T13:40:44,42.805,6.029,CST-1368DR,4334,4679,11466,01.236,551
2023-04-02T13:43:45,42.805,6.029,CST-1368DR,4334,4682,11474,01.233,551
2023-04-02T13:46:47,42.805,6.029,CST-1368DR,4334,4680,11469,01.235,551
2023-04-02T13:49:49,42.805,6.029,CST-1368DR,4334,4680,11469,01.235,551
2023-04-02T13:52:50,42.805,6.029,CST-1368DR,4334,4681,11470,01.234,551
2023-04-02T13:55:52,42.805,6.029,CST-1368DR,4334,4682,11472,01.234,551
2023-04-02T13:58:53,42.805,6.029,CST-1368DR,4334,4683,11475,01.233,551
2023-04-02T14:01:55,42.805,6.029,CST-1368DR,4334,4685,11481,01.230,551
2023-04-02T14:04:56,42.805,6.029,CST-1368DR,4334,4681,11471,01.234,551
2023-04-02T14:07:58,42.805,6.029,CST-1368DR,4334,4685,11480,01.231,552
2023-04-02T14:11:00,42.805,6.029,CST-1368DR,4334,4683,11475,01.233,551
2023-04-02T14:14:01,42.805,6.029,CST-1368DR,4334,4683,11475,01.233,551
2023-04-02T14:17:03,42.805,6.029,CST-1368DR,4334,4682,11473,01.233,551
2023-04-02T14:20:04,42.805,6.029,CST-1368DR,4334,4680,11467,01.235,551
2023-04-02T14:23:06,42.805,6.029,CST-1368DR,4334,4668,11438,01.245,551
2023-04-02T14:26:07,42.805,6.029,CST-1368DR,4334,4682,11474,01.233,551
2023-04-02T14:29:09,42.805,6.029,CST-1368DR,4334,4683,11475,01.233,551
2023-04-02T14:32:11,42.805,6.029,CST-1368DR,4334,4685,11481,01.230,551
2023-04-02T14:35:12,42.805,6.029,CST-1368DR,4334,4682,11472,01.234,551
2023-04-02T14:38:14,42.805,6.029,CST-1368DR,4334,4681,11471,01.234,551
2023-04-02T14:41:15,42.805,6.029,CST-1368DR,4334,4683,11476,01.232,551
2023-04-02T14:44:17,42.805,6.029,CST-1368DR,4334,4680,11468,01.235,551
2023-04-02T14:47:19,42.805,6.029,CST-1368DR,4334,4679,11465,01.236,551
2023-04-02T14:50:20,42.805,6.029,CST-1368DR,4334,4682,11474,01.233,551
2023-04-02T14:53:22,42.805,6.029,CST-1368DR,4334,4689,11489,01.228,551
2023-04-02T14:56:23,42.805,6.029,CST-1368DR,4334,4682,11472,01.234,551
2023-04-02T14:59:25,42.805,6.029,CST-1368DR,4334,4683,11474,01.233,551
2023-04-02T15:02:26,42.805,6.029,CST-1368DR,4334,4682,11473,01.233,551
2023-04-02T15:05:28,42.805,6.029,CST-1368DR,4334,4685,11479,01.231,551
2023-04-02T15:08:30,42.805,6.029,CST-1368DR,4334,4686,11482,01.230,551
2023-04-02T15:11:31,42.805,6.029,CST-1368DR,4334,4684,11477,01.232,551
2023-04-02T15:14:33,42.805,6.029,CST-1368DR,4334,4685,11480,01.231,551
2023-04-02T15:17:34,42.805,6.029,CST-1368DR,4334,4686,11483,01.230,551
2023-04-02T15:20:36,42.805,6.029,CST-1368DR,4334,4685,11481,01.230,551
2023-04-02T15:23:38,42.805,6.029,CST-1368DR,4334,4684,11478,01.231,551
2023-04-02T15:26:39,42.805,6.029,CST-1368DR,4334,4686,11483,01.230,551
2023-04-02T15:29:41,42.805,6.029,CST-1368DR,4334,4685,11479,01.231,551
2023-04-02T15:32:42,42.805,6.029,CST-1368DR,4334,4685,11479,01.231,551
2023-04-02T15:35:44,42.805,6.029,CST-1368DR,4334,4684,11478,01.231,551
2023-04-02T15:38:45,42.805,6.029,CST-1368DR,4334,4684,11478,01.231,551
2023-04-02T15:41:47,42.805,6.029,CST-1368DR,4334,4683,11474,01.233,551
2023-04-02T15:44:49,42.805,6.029,CST-1368DR,4334,4680,11469,01.235,551
2023-04-02T15:47:50,42.805,6.029,CST-1368DR,4334,4684,11478,01.231,551
2023-04-02T15:50:52,42.805,6.029,CST-1368DR,4334,4682,11473,01.233,551
2023-04-02T15:53:53,42.805,6.029,CST-1368DR,4334,4679,11465,01.236,551
2023-04-02T15:56:55,42.805,6.029,CST-1368DR,4334,4681,11471,01.234,551
2023-04-02T15:59:56,42.805,6.029,CST-1368DR,4334,4681,11471,01.234,551
2023-04-02T16:02:58,42.805,6.029,CST-1368DR,4334,4679,11464,01.236,551
2023-04-02T16:06:00,42.805,6.029,CST-1368DR,4334,4683,11475,01.233,552
2023-04-02T16:09:01,42.805,6.029,CST-1368DR,4334,4682,11474,01.233,551
2023-04-02T16:12:03,42.805,6.029,CST-1368DR,4334,4679,11466,01.236,551
2023-04-02T16:15:04,42.805,6.029,CST-1368DR,4334,4680,11467,01.235,551
2023-04-02T16:18:06,42.805,6.029,CST-1368DR,4334,4681,11471,01.234,551
2023-04-02T16:21:08,42.805,6.029,CST-1368DR,4334,4679,11464,01.236,551
2023-04-02T16:24:09,42.805,6.029,CST-1368DR,4334,4679,11466,01.236,551
2023-04-02T16:27:11,42.805,6.029,CST-1368DR,4334,4685,11479,01.231,551
2023-04-02T16:30:13,42.805,6.029,CST-1368DR,4334,4683,11475,01.233,551
2023-04-02T16:33:15,42.805,6.029,CST-1368DR,4334,4678,11463,01.237,551
2023-04-02T16:36:16,42.805,6.029,CST-1368DR,4334,4681,11471,01.234,552